Weather History for Pella, IA

Change the Weather History Date:

Tuesday, July 9, 2013

  Actual Average (KOXV) Record (KOXV)
Temperature  
Mean Temperature 82 °F -  
Max Temperature 91 °F 88 °F 99 °F (1984)
Min Temperature 72 °F 67 °F 52 °F (1953)
Cooling Degree Days 16    
Growing Degree Days 32 (Base 50)    
Moisture  
Dew Point 73 °F    
Average Humidity 79    
Maximum Humidity 93    
Minimum Humidity 59    
Precipitation  
Precipitation 0.02 in - - ()
Sea Level Pressure  
Sea Level Pressure 29.94 in    
Wind  
Wind Speed 4 mph (SSW)    
Max Wind Speed 20 mph    
Max Gust Speed 25 mph    
Visibility 10 miles    
Events Rain    
Averages and records for this station are not official NWS values.
T = Trace of Precipitation, MM = Missing Value Source: NWS Daily Summary

Daily Weather History Graph

Daily Weather History Graph

Search for Another Location

Airport:

Trip Planner

Search our weather history database for the weather conditions in past years. The results will help you decide how hot, cold, wet, or windy it might be!

Date:

Astronomy

Jul. 09, 2013 Rise Set
Actual Time 5:47 AM CDT 8:46 PM CDT
Civil Twilight 5:13 AM CDT 9:19 PM CDT
Nautical Twilight 4:31 AM CDT 10:02 PM CDT
Astronomical Twilight 3:41 AM CDT 10:51 PM CDT
Moon 7:13 AM CDT (7/9) 9:22 PM CDT (7/9)
Length of Visible Light 16h 06m
Length of Day
14h 59m
New Moon, 2% of the Moon is Illuminated
Jul 9
New Moon
Jul 15
First Quarter
Jul 22
Full
Jul 29
Last Quarter
Aug 6
New

Hourly Weather History & Observations

Time (CDT) Temp. Heat Index Dew Point Humidity Pressure Visibility Wind Dir Wind Speed Gust Speed Precip Events Conditions
12:15 AM 74.5 °F - 71.6 °F 91% 29.98 in 10.0 mi Calm Calm - N/A   Clear
12:35 AM 74.3 °F - 71.1 °F 90% 29.98 in 10.0 mi Calm Calm - N/A   Clear
12:55 AM 73.9 °F - 70.9 °F 90% 29.96 in 10.0 mi ESE 3.5 mph - N/A   Clear
1:15 AM 73.8 °F - 70.9 °F 91% 29.96 in 10.0 mi ESE 3.5 mph - N/A   Clear
1:35 AM 73.9 °F - 70.7 °F 90% 29.96 in 10.0 mi ESE 3.5 mph - N/A   Clear
1:55 AM 72.9 °F - 70.7 °F 93% 29.97 in 7.0 mi SE 4.6 mph - N/A   Clear
2:15 AM 72.7 °F - 70.7 °F 93% 29.98 in 7.0 mi Calm Calm - N/A   Clear
2:35 AM 72.9 °F - 70.7 °F 93% 29.98 in 10.0 mi SSE 3.5 mph - N/A   Clear
2:55 AM 74.3 °F - 71.2 °F 90% 29.98 in 10.0 mi SSE 3.5 mph - N/A   Clear
3:15 AM 73.8 °F - 70.9 °F 91% 29.96 in 10.0 mi SE 3.5 mph - N/A   Clear
3:35 AM 74.3 °F - 71.1 °F 90% 29.95 in 10.0 mi SSE 5.8 mph - N/A   Clear
3:55 AM 73.6 °F - 70.7 °F 91% 29.95 in 10.0 mi SE 3.5 mph - N/A   Clear
4:15 AM 73.6 °F - 70.7 °F 91% 29.95 in 10.0 mi SE 4.6 mph - N/A   Clear
4:35 AM 73.6 °F - 70.9 °F 91% 29.95 in 7.0 mi SSE 4.6 mph - N/A   Scattered Clouds
4:55 AM 74.3 °F - 70.7 °F 88% 29.95 in 10.0 mi SSE 5.8 mph - N/A   Clear
5:15 AM 73.9 °F - 70.3 °F 88% 29.95 in 10.0 mi SSE 4.6 mph - N/A   Clear
5:35 AM 74.3 °F - 70.5 °F 88% 29.96 in 10.0 mi South 4.6 mph - N/A   Scattered Clouds
5:55 AM 74.3 °F - 70.7 °F 88% 29.97 in 10.0 mi SW 4.6 mph - N/A   Scattered Clouds
6:15 AM 76.1 °F - 69.6 °F 80% 29.98 in 10.0 mi WSW 19.6 mph 25.3 mph N/A   Scattered Clouds
6:35 AM 73.9 °F - 70.7 °F 90% 29.98 in 7.0 mi SW 6.9 mph 17.3 mph N/A Rain Light Rain
6:55 AM 73.4 °F - 71.1 °F 92% 29.97 in 7.0 mi SW 3.5 mph - 0.01 in Rain Light Rain
7:15 AM 73.2 °F - 71.1 °F 93% 29.97 in 7.0 mi Calm Calm - N/A Rain Light Rain
7:35 AM 74.3 °F - 71.1 °F 90% 29.96 in 10.0 mi SSW 5.8 mph - N/A Rain Light Rain
7:55 AM 73.8 °F - 71.1 °F 91% 29.96 in 10.0 mi South 5.8 mph - N/A Rain Light Rain
8:15 AM 73.8 °F - 71.2 °F 92% 29.95 in 10.0 mi SSE 4.6 mph - N/A Rain Light Rain
8:35 AM 73.9 °F - 71.6 °F 92% 29.95 in 10.0 mi South 4.6 mph - N/A Rain Light Rain
8:55 AM 74.3 °F - 71.6 °F 91% 29.94 in 10.0 mi ESE 3.5 mph - N/A   Clear
9:15 AM 75.4 °F - 72.3 °F 90% 29.94 in 10.0 mi SSE 5.8 mph - N/A   Clear
9:35 AM 75.6 °F - 71.8 °F 88% 29.96 in 10.0 mi South 4.6 mph - N/A   Clear
9:55 AM 75.0 °F - 72.0 °F 90% 30.00 in 10.0 mi WNW 10.4 mph - N/A   Clear
10:15 AM 76.1 °F - 72.9 °F 90% 30.01 in 10.0 mi WNW 4.6 mph - N/A   Scattered Clouds
10:35 AM 77.5 °F - 72.7 °F 85% 30.00 in 10.0 mi Calm Calm - N/A   Clear
10:55 AM 78.6 °F - 71.6 °F 79% 30.00 in 10.0 mi SW 5.8 mph - N/A   Clear
11:15 AM 79.7 °F - 72.3 °F 78% 29.99 in 10.0 mi SSW 4.6 mph - N/A   Clear
11:35 AM 79.9 °F - 72.1 °F 77% 29.95 in 10.0 mi SE 5.8 mph - N/A   Clear
11:55 AM 79.2 °F - 72.5 °F 80% 29.94 in 10.0 mi SSE 8.1 mph - 0.01 in   Clear
12:15 PM 78.3 °F - 72.0 °F 81% 29.94 in 10.0 mi South 11.5 mph - N/A   Clear
12:35 PM 82.6 °F 88.3 °F 73.0 °F 73% 29.94 in 10.0 mi South 12.7 mph 17.3 mph N/A   Clear
12:55 PM 84.4 °F 90.0 °F 72.0 °F 66% 29.94 in 10.0 mi South 12.7 mph 17.3 mph N/A   Clear
1:06 PM 84.2 °F 89.6 °F 71.6 °F 66% 29.94 in 10.0 mi SSW 9.2 mph - N/A   Clear
1:15 PM 84.9 °F 91.4 °F 72.9 °F 67% 29.94 in 10.0 mi SSW 9.2 mph - N/A   Clear
1:26 PM 84.2 °F 90.9 °F 73.4 °F 70% 29.93 in 10.0 mi South 6.9 mph - N/A   Clear
1:35 PM 85.5 °F 92.6 °F 73.4 °F 67% 29.93 in 10.0 mi South 8.1 mph - N/A   Clear
1:55 PM 87.1 °F 94.9 °F 73.8 °F 64% 29.92 in 10.0 mi South 10.4 mph - N/A   Clear
2:15 PM 87.4 °F 95.3 °F 73.4 °F 63% 29.91 in 10.0 mi South 8.1 mph - N/A   Clear
2:35 PM 88.5 °F 96.3 °F 73.0 °F 60% 29.91 in 10.0 mi South 10.4 mph 16.1 mph N/A   Clear
2:55 PM 89.1 °F 97.5 °F 73.4 °F 60% 29.91 in 10.0 mi SSW 9.2 mph - N/A   Clear
3:15 PM 89.6 °F 99.3 °F 74.5 °F 61% 29.91 in 10.0 mi SSW 9.2 mph - N/A   Clear
3:35 PM 89.6 °F 99.3 °F 74.3 °F 61% 29.91 in 10.0 mi SSW 8.1 mph - N/A   Scattered Clouds
3:55 PM 89.2 °F 97.9 °F 73.6 °F 60% 29.91 in 10.0 mi SW 8.1 mph - N/A   Scattered Clouds
4:15 PM 90.9 °F 101.2 °F 74.8 °F 59% 29.91 in 10.0 mi West 6.9 mph - N/A   Scattered Clouds
4:35 PM 90.3 °F 99.9 °F 74.3 °F 59% 29.90 in 10.0 mi WSW 5.8 mph - N/A   Scattered Clouds
4:55 PM 90.3 °F 100.4 °F 74.7 °F 60% 29.90 in 10.0 mi West 4.6 mph - N/A   Scattered Clouds
5:15 PM 91.0 °F 101.6 °F 75.0 °F 59% 29.90 in 10.0 mi West 8.1 mph - N/A   Clear
5:35 PM 90.5 °F 100.9 °F 74.8 °F 60% 29.89 in 10.0 mi WSW 4.6 mph - N/A   Clear
5:55 PM 90.9 °F 101.8 °F 75.0 °F 60% 29.89 in 10.0 mi West 5.8 mph - N/A   Clear
6:15 PM 90.5 °F 100.3 °F 74.5 °F 59% 29.89 in 10.0 mi WSW 4.6 mph - N/A   Clear
6:35 PM 90.0 °F 100.2 °F 74.7 °F 61% 29.89 in 10.0 mi West 4.6 mph - N/A   Clear
6:55 PM 89.6 °F 99.3 °F 74.7 °F 61% 29.89 in 10.0 mi West 4.6 mph - N/A   Clear
7:15 PM 89.1 °F 99.6 °F 75.6 °F 64% 29.89 in 10.0 mi West 3.5 mph - N/A   Clear
7:35 PM 88.2 °F 98.5 °F 75.6 °F 66% 29.89 in 10.0 mi Calm Calm - N/A   Clear
7:55 PM 86.9 °F 96.8 °F 75.7 °F 69% 29.89 in 10.0 mi Calm Calm - N/A   Clear
8:15 PM 85.1 °F 94.5 °F 76.1 °F 74% 29.89 in 10.0 mi Calm Calm - N/A   Clear
8:35 PM 82.6 °F 90.2 °F 75.7 °F 80% 29.89 in 10.0 mi Calm Calm - N/A   Clear
8:55 PM 81.1 °F 87.4 °F 75.6 °F 83% 29.89 in 10.0 mi Calm Calm - N/A   Clear
9:15 PM 82.4 °F 89.2 °F 74.8 °F 78% 29.89 in 10.0 mi Calm Calm - N/A   Clear
9:35 PM 80.8 °F 86.1 °F 74.3 °F 81% 29.90 in 10.0 mi Calm Calm - N/A   Clear
9:55 PM 79.9 °F - 74.3 °F 83% 29.91 in 10.0 mi Calm Calm - N/A   Clear
10:15 PM 79.2 °F - 75.0 °F 87% 29.91 in 10.0 mi Calm Calm - N/A   Clear
10:35 PM 78.8 °F - 75.2 °F 89% 29.90 in 10.0 mi West 3.5 mph - N/A   Clear
10:55 PM 78.8 °F - 74.3 °F 86% 29.90 in 10.0 mi Calm Calm - N/A   Clear
11:15 PM 78.8 °F - 73.8 °F 84% 29.90 in 10.0 mi Calm Calm - N/A   Clear
11:35 PM 78.1 °F - 74.3 °F 88% 29.90 in 10.0 mi Calm Calm - N/A   Clear
11:55 PM 77.0 °F - 73.8 °F 90% 29.91 in 10.0 mi Calm Calm - N/A   Clear